Terminal Aerodrome Forecast
Issued by NWS Portland, OR

Home | Current Version | Previous Version | Text Only | Print | Product List | Glossary On
Versions: 1 2 3 4 5 6 7 8 9 10 11 12 13 14 15 16 17 18 19 20 21 22 23 24 25 26 27 28 29 30 31 32 33 34
000
FTUS46 KPQR 262330
TAFTTD
TAF
KTTD 262330Z 2700/2724 08004KT P6SM SKC
     FM270700 00000KT 3SM BR SCT002
     FM271000 00000KT 1/2SM FG OVC002
     FM271600 VRB03KT 2SM BR BKN005
     FM271800 23005KT P6SM SCT005 SCT150=

USA.gov is the U.S. government's official web portal to all federal, state and local government web resources and services.